Location: Veytaux
(46.4185°N, 6.9320°E)
Time: 08:46:23
(UTC+00:00)

Lacrosse 5 rocket - Pass Details

Date: 27 May 2022
Orbit: 456 x 629 km, 57.0° (Epoch: 01 July)

Event Time Altitude Azimuth Distance (km) Brightness Sun altitude
Exits shadow 01:16:27 41° 170° (S) 750 1.6 -18.1°
Maximum altitude 01:17:13 48° 134° (SE) 681 1.6 -18.1°
Drops below altitude 10° 01:21:06 10° 60° (ENE) 1,793 4.8 -17.7°
Sets 01:23:27 0° 54° (NE) 2,721 6.0 -17.6°
